Location: *
(46.1006°N, 1.8394°E)
Time: 17:22:42
(UTC+00:00)

Cosmos 2237 Rocket - Pass Details

Date: 20 September 2019
Orbit: 833 x 852 km, 71.0° (Epoch: 19 October)

Event Time Altitude Azimuth Distance (km) Brightness Sun altitude
Rises 19:11:46 0° 334° (NNW) 3,425 6.0 -13.9°
Reaches altitude 10° 19:14:14 10° 335° (NNW) 2,487 5.2 -14.4°
Maximum altitude 19:19:58 81° 63° (ENE) 868 2.2 -15.3°
Enters shadow 19:24:43 15° 150° (SSE) 2,122 3.9 -16.1°
